This is the latest recevied weather packets stored in our database for station/object W9GWP. If no packets are shown the sender has not sent any weather packets the latest 10 day(s).
| Time | Temp. | Humidity | Pressure | Rain* | Wind** | Luminosity | Snow |
|---|---|---|---|---|---|---|---|
| 1777911859 | 22.78° C | 39% | 1030.1 hPa | 0 mm | - | 697 W/m² | - |
| 1777910955 | 22.22° C | 38% | 1030.2 hPa | 0 mm | - | 429 W/m² | - |
| 1777910052 | 21.67° C | 41% | 1030.5 hPa | 0 mm | - | 659 W/m² | - |
| 1777909150 | 21.67° C | 41% | 1030.7 hPa | 0 mm | - | 656 W/m² | - |
| 1777908247 | 21.11° C | 41% | 1030.8 hPa | 0 mm | - | 599 W/m² | - |
| 1777907346 | 20.56° C | 45% | 1031 hPa | 0 mm | - | 648 W/m² | - |
| 1777906442 | 20° C | 44% | 1031.2 hPa | 0 mm | - | 396 W/m² | - |
| 1777905539 | 20° C | 45% | 1031.3 hPa | 0 mm | - | 461 W/m² | - |
| 1777904636 | 19.44° C | 46% | 1031.3 hPa | 0 mm | - | 384 W/m² | - |
| 1777903732 | 18.89° C | 47% | 1031.5 hPa | 0 mm | - | 318 W/m² | - |
| 1777902833 | 18.33° C | 51% | 1031.6 hPa | 0 mm | - | 214 W/m² | - |
| 1777901931 | 16.67° C | 54% | 1031.9 hPa | 0 mm | - | 267 W/m² | - |
| 1777901029 | 16.11° C | 56% | 1032.1 hPa | 0 mm | - | 213 W/m² | - |
| 1777900126 | 15° C | 60% | 1032.4 hPa | 0 mm | - | 192 W/m² | - |
| 1777899223 | 15° C | 60% | 1032.4 hPa | 0 mm | - | 148 W/m² | - |
| 1777898320 | 13.89° C | 64% | 1032.5 hPa | 0 mm | - | 114 W/m² | - |
| 1777897417 | 13.89° C | 66% | 1032.4 hPa | 0 mm | - | 50 W/m² | - |
| 1777896512 | 12.78° C | 69% | 1032.4 hPa | 0 mm | - | 42 W/m² | - |
| 1777895610 | 11.67° C | 72% | 1032.4 hPa | 0 mm | - | 34 W/m² | - |
| 1777894708 | 10.56° C | 75% | 1032.3 hPa | 0 mm | - | 28 W/m² | - |
| 1777893804 | 9.44° C | 80% | 1032.3 hPa | 0 mm | - | 18 W/m² | - |
| 1777892899 | 8.89° C | 81% | 1032.4 hPa | 0 mm | - | 9 W/m² | - |
| 1777891994 | 8.89° C | 82% | 1032.3 hPa | 0 mm | - | 2 W/m² | - |
| 1777891089 | 8.89° C | 82% | 1032.6 hPa | 0 mm | - | 0 W/m² | - |
| 1777890188 | 8.33° C | 83% | 1032.4 hPa | 0 mm | - | 0 W/m² | - |
* Rain latest hour (hover to see other rain measurements)
** Current wind speed in m/s (hover to see current wind gust speed)